User: anonymous   Login
Location: Newark
(44.0167°N, 1.3500°E)
Time: 04:40:46
(UTC+00:00)
Language:

VELOX 1 - Orbit

View from above orbital plane
View from above orbital plane
View from above satellite
View from above satellite

Ground track
Ground track

The orbit data is extracted from the following two-line orbital elements,

1 40057U 14034E   19349.72578949  .00000208  00000-0  36692-4 0  9995
2 40057  98.2563 116.9444 0011216  23.7161 336.4571 14.77765220294354
Epoch (UTC): 15 December 2019 17:25:08
Eccentricity: 0.0011216
inclination: 98.2563°
perigee height: 628 km
apogee height: 644 km
right ascension of ascending node: 116.9444°
argument of perigee: 23.7161°
revolutions per day: 14.77765220
mean anomaly at epoch: 336.4571°
orbit number at epoch: 29435

The dashed part of the orbit path shows where the satellite is in the earth's shadow,  

DLR